Sarasota, FL

7:51 AM EST on December 07, 2019 (GMT -0500)
Sarasota-bradenton

Weather History for KSRQ - October, 2019

Change the Weather History Date:

Thursday, October 17, 2019

  Actual Average Record
Temperature  
Mean Temperature 82 °F 76 °F  
Max Temperature 89 °F 85 °F 94 °F (1925)
Min Temperature 75 °F 67 °F 49 °F (1943)
Degree Days  
Heating Degree Days 0 0  
Month to date heating degree days 0 0  
Since 1 July heating degree days 0 0  
Cooling Degree Days 17 11  
Month to date cooling degree days 306 222  
Year to date cooling degree days 3763 3011  
Growing Degree Days 32 (Base 50)    
Moisture  
Dew Point 72 °F    
Average Humidity 74    
Maximum Humidity 94    
Minimum Humidity 57    
Precipitation  
Precipitation 0.00 in 0.09 in 3.30 in (1933)
Month to date precipitation 0.35 1.98  
Year to date precipitation 43.73 47.41  
Sea Level Pressure  
Sea Level Pressure 29.90 in    
Wind  
Wind Speed 4 mph ()    
Max Wind Speed 10 mph    
Max Gust Speed 13 mph    
Visibility 10.0 miles    
Events      
T = Trace of Precipitation, MM = Missing Value Source: Averaged Metar Reports

Daily Weather History Graph

Daily Weather History Graph

Search for Another Location

Airport or City:

Astronomy

Oct. 17, 2019 Rise Set
Actual Time 7:31 AM EDT 6:59 PM EDT
Civil Twilight 7:07 AM EDT 7:23 PM EDT
Nautical Twilight 6:40 AM EDT 7:50 PM EDT
Astronomical Twilight 6:13 AM EDT 8:17 PM EDT
Moon 9:47 PM EDT (10/17) 10:46 AM EDT (10/17)
Length of Visible Light 12h 15m
Length of Day
11h 28m
Waning Gibbous, 87% of the Moon is Illuminated
Oct 17
Waning Gibbous
Oct 21
Last Quarter
Oct 27
New
Nov 4
First Quarter
Nov 12
Full

Hourly Weather History & Observations

Time (EDT) Temp. Heat Index Dew Point Humidity Pressure Visibility Wind Dir Wind Speed Gust Speed Precip Events Conditions
12:53 AM 82.0 °F 88.6 °F 75.0 °F 79% 29.89 in 10.0 mi NNW 9.2 mph - N/A   Mostly Cloudy
1:53 AM 80.1 °F 84.5 °F 73.9 °F 81% 29.90 in 10.0 mi NNW 4.6 mph - N/A   Clear
2:53 AM 79.0 °F - 73.9 °F 84% 29.88 in 10.0 mi NNW 4.6 mph - N/A   Partly Cloudy
3:53 AM 79.0 °F - 73.9 °F 84% 29.87 in 10.0 mi Calm Calm - N/A   Clear
4:53 AM 78.1 °F - 73.0 °F 84% 29.86 in 10.0 mi Calm Calm - N/A   Clear
5:12 AM 77.0 °F - 72.0 °F 84% 29.87 in 10.0 mi Calm Calm - N/A   Partly Cloudy
5:53 AM 75.9 °F - 72.0 °F 87% 29.87 in 10.0 mi Calm Calm - N/A   Clear
6:53 AM 75.0 °F - 72.0 °F 90% 29.89 in 10.0 mi SE 3.5 mph - N/A   Clear
7:53 AM 75.9 °F - 73.0 °F 91% 29.91 in 10.0 mi Calm Calm - N/A   Scattered Clouds
8:53 AM 79.0 °F - 73.9 °F 84% 29.92 in 10.0 mi Calm Calm - N/A   Mostly Cloudy
9:29 AM 81.0 °F 86.2 °F 73.9 °F 79% 29.94 in 10.0 mi NE 9.2 mph - N/A   Scattered Clouds
9:53 AM 81.0 °F 85.8 °F 73.0 °F 77% 29.95 in 10.0 mi ENE 8.1 mph - N/A   Clear
10:53 AM 82.9 °F 88.0 °F 72.0 °F 69% 29.94 in 10.0 mi ENE 6.9 mph - N/A   Partly Cloudy
11:44 AM 84.9 °F 90.7 °F 72.0 °F 65% 29.94 in 10.0 mi East 3.5 mph - N/A   Mostly Cloudy
11:53 AM 84.9 °F 90.1 °F 71.1 °F 63% 29.94 in 10.0 mi Variable 4.6 mph - N/A   Scattered Clouds
12:07 PM 86.0 °F 91.5 °F 71.1 °F 61% 29.93 in 10.0 mi NNE 3.5 mph - N/A   Scattered Clouds
12:53 PM 88.0 °F 93.8 °F 71.1 °F 57% 29.93 in 10.0 mi Variable 4.6 mph - N/A   Scattered Clouds
1:53 PM 87.1 °F 93.6 °F 72.0 °F 61% 29.91 in 10.0 mi WNW 8.1 mph - N/A   Overcast
2:53 PM 87.1 °F 92.8 °F 71.1 °F 59% 29.89 in 10.0 mi West 8.1 mph - N/A   Overcast
3:53 PM 87.1 °F 93.6 °F 72.0 °F 61% 29.88 in 10.0 mi West 8.1 mph - N/A   Overcast
4:53 PM 84.0 °F 89.6 °F 72.0 °F 67% 29.88 in 10.0 mi West 9.2 mph - N/A   Overcast
5:53 PM 84.0 °F 89.0 °F 71.1 °F 65% 29.88 in 10.0 mi NNW 4.6 mph - N/A   Overcast
6:53 PM 82.0 °F 86.3 °F 71.1 °F 69% 29.87 in 10.0 mi NNW 3.5 mph - N/A   Mostly Cloudy
7:53 PM 80.1 °F 83.8 °F 72.0 °F 76% 29.88 in 10.0 mi North 4.6 mph - N/A   Mostly Cloudy
8:53 PM 79.0 °F - 72.0 °F 79% 29.88 in 10.0 mi Calm Calm - N/A   Clear
9:53 PM 80.1 °F 83.8 °F 72.0 °F 76% 29.91 in 10.0 mi Calm Calm - N/A   Clear
10:53 PM 79.0 °F - 71.1 °F 77% 29.93 in 10.0 mi NNE 4.6 mph - N/A   Partly Cloudy
11:53 PM 78.1 °F - 70.0 °F 76% 29.92 in 10.0 mi NE 4.6 mph - N/A   Scattered Clouds